Location: Baix
(44.7118°N, 4.7648°E)
Time: 10:24:35
(UTC+00:00)

Cosmos 2322 Rocket - Pass Details

Date: 30 November 2022
Orbit: 834 x 849 km, 71.0° (Epoch: 31 January)

Event Time Altitude Azimuth Distance (km) Brightness Sun altitude
Rises 05:42:30 0° 144° (SE) 3,390 6.3 -12.8°
Reaches altitude 10° 05:47:10 10° 108° (ESE) 2,459 6.2 -12.0°
Maximum altitude 05:48:27 11° 95° (E) 2,403 5.9 -11.8°
Drops below altitude 10° 05:49:45 10° 82° (E) 2,460 5.7 -11.6°
Sets 05:54:24 0° 47° (NE) 3,398 5.7 -10.8°
